This demonstration page uses our WeatherBlox Daily Observations layout. Learn more.

Left ArrowRight Arrow

Hourly Observations for May 15, 2018

Temp ( °F °C ) Dew Point ( °F °C ) Humidity (%) Winds ( mph kmh ) Pressure ( in mb ) Visibility ( mi km ) Precip ( " mm )
12:56 am 00:56 Mostly Cloudy 60 15.6 57 13.9 90 90 Calm 29.98 1015 10 16 0.00 0.00
1:56 am 01:56 Mostly Clear 57 13.9 56 13.3 96 96 NW 5 7 30.00 1016 10 16 0.00 0.00
2:56 am 02:56 Clear 57 13.9 55 12.8 93 93 WNW 6 9 30.00 1016 10 16 0.00 0.00
3:56 am 03:56 Clear 55 12.8 54 12.2 96 96 NW 6 9 29.98 1015 10 16 0.00 0.00
4:56 am 04:56 Clear 54 12.2 53 11.7 97 97 NNW 3 6 29.99 1016 10 16 0.00 0.00
6:56 am 06:56 Sunny 54 12.2 53 11.7 97 97 WNW 5 7 30.05 1018 10 16 0.00 0.00
7:56 am 07:56 Sunny 57 13.9 54 12.2 90 90 NW 7 11 30.06 1018 10 16 0.00 0.00
8:56 am 08:56 Sunny 62 16.7 56 13.3 80 80 NNW 8 13 30.06 1018 10 16 0.00 0.00
9:25 am 09:25 Mostly Sunny 64 18 57 14 78 78 N 8 13 30.03 1017 10 16 0.00 0.00
9:56 am 09:56 Sunny 67 19.4 58 14.4 73 73 N 10 17 30.06 1018 10 16 0.00 0.00
10:56 am 10:56 Mostly Sunny 69 20.6 58 14.4 68 68 N 7 11 30.05 1018 10 16 0.00 0.00
11:21 am 11:21 Mostly Cloudy 70 21 55 13 60 60 NNE 5 7 30.00 1016 7 11 0.00 0.00
11:31 am 11:31 Mostly Cloudy 68 20 55 13 64 64 NE 5 7 30.03 1017 10 16 0.00 0.00
11:41 am 11:41 Partly Cloudy 72 22 57 14 61 61 VRB 5 7 30.00 1016 10 16 0.00 0.00
11:56 am 11:56 Partly Cloudy 70 21.1 56 13.3 61 61 NE 5 7 30.06 1018 10 16 0.00 0.00
12:56 pm 12:56 Partly Cloudy 73 22.8 56 13.3 55 55 NE 7 11 30.05 1018 10 16 0.00 0.00
1:56 pm 13:56 Partly Cloudy 72 22.2 56 13.3 57 57 VRB 3 6 30.04 1017 10 16 0.00 0.00
2:56 pm 14:56 Partly Cloudy 74 23.3 57 13.9 56 56 ENE 6 9 30.02 1017 10 16 0.00 0.00
3:56 pm 15:56 Mostly Sunny 74 23.3 57 13.9 56 56 VRB 3 6 30.01 1016 10 16 0.00 0.00
4:56 pm 16:56 Mostly Sunny 75 23.9 57 13.9 54 54 E 9 15 29.99 1016 10 16 0.00 0.00
5:56 pm 17:56 Mostly Sunny 75 23.9 57 13.9 54 54 E 8 13 29.98 1015 10 16 0.00 0.00
6:56 pm 18:56 Sunny 74 23.3 56 13.3 54 54 Calm 29.98 1015 10 16 0.00 0.00
7:56 pm 19:56 Sunny 72 22.2 58 14.4 61 61 E 7 11 29.97 1015 10 16 0.00 0.00
8:56 pm 20:56 Clear 67 19.4 60 15.6 79 79 E 7 11 29.97 1015 10 16 0.00 0.00
9:56 pm 21:56 Clear 65 18.3 57 13.9 76 76 E 7 11 29.98 1015 10 16 0.00 0.00
10:56 pm 22:56 Clear 63 17.2 57 13.9 81 81 SE 7 11 30.00 1016 10 16 0.00 0.00
11:56 pm 23:56 Clear 62 16.7 56 13.3 80 80 SE 3 6 29.99 1016 10 16 0.00 0.00

Powered by AerisWeather